Weather in Irkutsk

Russia / Irkutsk Oblast     52°17′10″N   104°16′50″E
temp.,
°C
wind,
m/s
gust,
m/s
humid.,
%
clouds,
%
prec.,
mm/h
press.,
hPa
HPBL,
m
13 may, thu
thu1323:00+6wnw4107573 0.1 1015468
02:00+5wnw3775100 0.1 1015278
05:00+3wnw25836 0.0 1016151
08:00+5nw36525 0.0 1016669
11:00+8nw5734100 0.0 10162374
14:00+10nw61025100 0.0 10153260
17:00+10nnw682298 0.0 10153067
20:00+8nnw36320 0.0 1017801
14 may, fri
fri1423:00+4w23450 0.0 101978
02:00+2wsw11515 0.0 102041
05:000sw11560 0.0 102035
08:00+6wnw11390 0.0 1019300
11:00+12nw11260 0.0 10171263
14:00+15e12200 0.0 10141657
17:00+16ese22180 0.0 10112163
20:00+12se36320 0.0 1012238
15 may, sat
sat1523:00+6sse24411 0.0 101485
02:00+4sse243973 0.0 101388
05:00+3se254977 0.0 1013113
08:00+7wnw5948100 0.0 1015662
11:00+10wnw685796 0.0 10171377
14:00+7nw6963100 0.0 10191027
17:00+9wnw5952100 0.0 10191461
20:00+5w358446 1.4 1021526
16 may, sun
sun1623:00+2s22912 0.0 102258
02:00+1s229090 0.0 102156
05:00+1sse228653 0.0 102134
08:00+5sse247398 0.0 1020138
11:00+15ssw234498 0.0 1016685
14:00+20nnw1433100 0.0 10151986
17:00+18n334084 0.0 10141009
20:00+14nne365869 0.0 1015309
17 may, mon
mon1723:00+9sse117772 0.0 101511
02:00+8sse2282100 0.0 101333
05:00+7s1278100 0.0 101230
08:00+11wnw1470100 0.1 1012253
11:00+15nw2460100 0.0 1011825
14:00+15nnw356194 0.0 1010927
17:00+12wsw2488100 0.9 1011261
20:00+12wsw1282100 0.9 101134